Theta_e
293 288 286 290 291 292 286 285 285 289 292 290 290 291 294 297 294 293 296 297 295 295 300 299 297 298 297 296 294 293 292 292 293 291 290 290 290 288 286 286 287 286 286 286
289 286 292 292 291 290 289 287 287 291 293 289 290 291 294 294 297 297 296 297 298 299 300 299 295 295 296 296 295 293 292 292 293 293 293 290 290 286 288 287 286 286 286 285
289 291 294 292 289 289 288 287 288 287 289 288 287 288 288 291 295 298 299 298 299 299 299 300 294 294 295 295 294 293 292 291 293 293 291 286 286 284 284 284 285 285 286 285
288 293 292 290 289 290 287 291 291 289 284 282 287 282 284 289 291 293 296 297 297 298 300 301 293 292 294 296 294 293 292 291 292 291 290 288 288 287 287 287 285 283 285 284
288 288 288 288 290 291 290 290 288 285 283 282 283 280 285 289 288 292 295 296 297 298 299 297 293 295 295 295 293 292 292 291 292 290 290 289 288 287 284 283 283 284 283 283
290 290 290 290 290 290 289 287 286 283 281 277 285 282 286 285 289 291 294 296 297 298 299 292 294 293 291 290 291 291 290 289 290 289 289 289 288 283 283 283 284 284 283 283
285 287 290 292 288 288 288 284 278 275 275 278 283 281 287 288 290 291 294 296 297 298 297 293 292 291 289 289 289 289 289 288 288 288 288 288 288 285 286 285 285 284 283 282
281 283 287 290 290 287 285 287 279 272 276 281 281 278 287 291 294 295 294 296 296 294 292 293 292 291 290 290 289 290 289 289 288 288 289 289 288 287 287 286 286 285 284 284
282 283 287 288 288 290 284 282 289 281 272 273 280 285 291 291 290 290 291 292 292 290 291 292 291 291 290 289 289 289 288 289 289 288 289 288 288 287 287 285 285 285 284 283
287 283 286 285 286 286 286 288 281 280 273 272 278 279 284 288 289 292 292 290 292 291 290 291 291 291 289 289 288 288 288 289 288 288 288 288 288 287 287 284 283 283 283 281
289 287 286 283 283 284 282 283 283 283 282 279 278 282 293 292 289 288 290 290 290 289 290 291 292 292 290 289 288 288 287 287 287 288 288 288 287 286 286 284 283 282 281 280
290 288 283 286 291 287 286 285 286 282 281 281 283 283 295 293 290 289 289 290 290 290 292 292 292 292 290 290 288 289 288 287 288 288 287 287 285 284 284 283 282 281 281 280
290 285 281 281 285 289 285 287 287 287 286 282 279 282 295 295 295 291 289 292 292 292 292 293 292 291 291 291 290 289 289 289 288 286 285 285 283 283 284 283 282 281 281 279
295 288 285 280 284 286 283 285 288 286 281 282 283 284 289 292 292 294 295 297 297 297 296 293 293 293 293 292 291 288 289 289 288 286 285 284 284 284 284 283 280 280 280 278
292 285 287 288 288 288 287 287 288 284 284 281 284 284 288 291 292 294 294 293 291 292 293 293 293 293 292 292 290 290 290 288 286 285 284 284 284 284 283 281 279 279 279 278
288 284 286 284 287 286 284 287 287 288 288 288 288 287 294 296 297 296 296 296 296 296 297 297 293 292 289 289 290 287 288 287 285 285 285 285 283 281 280 279 279 278 277 276
284 282 281 278 284 284 280 285 286 287 289 288 284 289 293 292 293 294 295 292 290 289 290 291 292 292 291 291 289 289 289 285 284 284 283 281 281 280 278 278 277 276 276 275
282 280 280 277 279 272 283 290 290 287 289 286 284 283 284 283 285 288 289 288 288 289 289 289 289 290 292 291 288 287 284 282 283 282 281 279 279 278 277 276 276 275 275 274
283 281 278 275 275 280 284 282 281 281 279 278 278 279 282 283 284 287 286 288 288 288 289 289 288 286 287 288 289 285 281 281 281 280 280 278 278 276 275 275 275 274 274 274
282 284 280 278 275 274 273 279 280 283 276 277 279 279 280 281 275 278 285 287 287 288 289 288 287 286 284 282 280 281 279 279 279 280 279 277 277 276 275 276 274 275 275 274
264 265 267 271 269 273 275 279 279 275 270 279 281 281 281 278 281 283 284 283 285 286 286 288 288 286 284 280 278 278 277 277 277 276 275 275 275 276 276 275 274 274 273 273
267 268 268 267 262 264 277 277 270 274 279 281 281 280 279 280 280 280 281 281 282 283 284 286 286 286 284 280 278 277 277 277 274 274 273 273 274 275 274 273 272 273 272 272
266 271 268 268 268 276 278 277 279 280 280 278 277 278 279 278 277 278 278 280 281 282 283 284 284 285 285 279 277 278 279 276 273 271 271 273 273 274 274 273 271 272 271 271
271 274 268 267 273 274 276 278 280 280 277 278 279 277 276 274 276 277 277 277 277 278 279 281 282 283 284 285 279 279 278 276 276 275 273 272 271 272 273 273 272 271 271 271
271 273 269 270 274 275 276 277 277 276 277 275 274 274 273 274 273 273 273 274 275 276 277 278 279 279 280 283 283 280 277 276 275 275 273 272 273 272 272 272 272 272 272 272
275 273 270 269 275 275 276 278 275 272 271 271 270 271 272 272 271 271 271 272 273 273 273 272 272 273 274 277 280 283 278 276 276 273 272 272 271 271 271 271 271 276 275 276
Wind_Speed
4 5 11 22 18 18 2 6 10 8 7 5 11 18 20 20 8 13 17 18 16 17 22 11 12 15 13 13 15 18 19 18 15 11 11 8 11 7 5 6 9 9 7 7
1 9 19 7 6 8 11 19 20 18 17 6 16 24 14 12 19 19 19 21 22 20 19 16 11 12 17 21 21 20 21 19 17 14 11 6 8 4 6 6 7 9 9 8
16 11 12 10 8 9 16 15 18 19 6 5 12 26 14 10 17 21 22 22 21 24 23 21 10 13 13 17 20 22 23 22 19 16 9 4 5 4 3 5 7 7 9 8
9 10 16 7 8 14 20 14 16 14 1 10 3 30 2 8 15 17 21 19 20 22 23 21 10 10 14 21 16 18 19 20 18 17 15 15 10 10 8 8 5 6 9 9
11 4 5 10 22 10 17 6 8 3 4 4 7 7 3 9 10 18 22 20 18 20 21 16 12 14 18 13 17 16 17 17 16 16 16 14 11 7 4 4 9 9 8 9
14 3 5 9 4 9 1 2 3 4 3 6 14 11 31 8 13 10 12 19 19 18 21 8 9 7 7 7 11 14 17 16 15 17 17 19 17 10 8 8 10 10 7 8
3 7 5 6 5 3 5 5 4 4 0 12 3 9 30 6 6 11 16 17 19 17 14 8 10 9 10 13 13 13 17 18 16 18 17 17 15 13 15 13 12 11 9 8
3 19 9 5 13 9 10 12 9 10 11 16 7 9 18 13 13 14 14 18 15 14 6 9 10 10 12 14 14 14 15 16 16 17 18 16 16 11 11 12 9 10 10 11
6 12 2 5 3 9 3 8 15 5 1 2 7 17 17 12 10 9 11 12 15 11 9 9 7 8 8 12 15 16 15 15 16 16 14 14 13 14 14 11 10 10 9 8
6 11 2 4 2 4 7 1 2 2 4 7 8 7 16 19 10 15 14 13 16 11 8 8 7 7 6 7 9 11 13 17 14 15 15 14 15 15 13 10 14 12 10 11
2 6 10 1 8 7 1 5 5 2 5 15 18 13 32 24 10 9 10 8 8 9 8 8 6 6 7 7 9 11 10 12 12 15 16 16 14 14 13 12 12 12 11 13
9 5 7 20 18 6 7 12 17 13 16 11 17 18 29 20 6 8 9 10 5 5 8 6 6 6 7 7 9 14 13 14 17 15 13 15 12 12 14 13 13 13 14 13
6 4 7 5 10 19 16 18 21 17 18 23 22 19 30 25 25 12 10 13 9 6 5 4 4 7 9 10 10 12 12 16 11 9 13 12 13 14 17 16 14 14 14 13
7 17 18 20 19 3 6 19 22 23 17 25 22 29 30 35 25 22 20 23 20 17 15 8 7 10 11 10 11 10 12 14 13 14 14 15 16 18 16 14 14 15 15 15
8 20 20 24 29 29 29 28 26 23 24 18 23 23 22 32 33 23 13 9 8 9 10 10 11 11 10 10 11 11 14 11 12 13 14 17 17 14 13 13 14 13 14 14
9 10 17 25 25 28 32 32 32 35 33 28 29 30 30 34 33 30 22 21 17 16 18 19 13 11 12 11 11 8 12 13 14 15 18 13 12 12 12 12 13 14 13 12
9 7 10 21 14 17 24 31 31 32 28 23 27 30 28 27 24 26 18 14 14 14 18 22 18 13 15 14 14 15 14 9 13 14 11 12 13 13 14 14 14 15 15 14
22 22 15 22 19 31 21 12 19 28 31 15 14 18 17 17 19 12 17 17 17 17 17 17 17 20 20 14 10 10 7 10 12 11 11 11 14 14 14 14 14 13 13 14
23 20 10 12 19 22 18 9 9 7 5 16 16 20 15 19 19 4 19 17 16 16 14 13 12 14 15 17 16 7 5 6 8 11 13 13 14 14 15 15 15 13 13 12
12 9 14 11 15 8 7 14 19 12 12 21 12 16 13 17 11 14 22 19 20 20 15 17 17 15 13 12 9 6 3 4 8 8 9 10 11 13 14 15 15 13 13 13
5 6 9 15 14 8 15 20 20 5 12 18 9 12 14 12 10 17 19 18 18 18 24 21 16 14 13 10 7 6 5 5 6 4 4 7 9 11 11 11 10 12 12 12
6 5 4 5 6 13 24 15 8 11 12 10 8 10 12 14 18 20 19 21 18 20 19 17 17 17 13 7 7 4 3 3 4 6 6 5 5 6 8 12 10 11 12 12
5 5 4 7 8 19 11 9 14 12 3 4 11 17 16 17 16 16 17 18 18 18 17 16 15 18 16 9 4 9 6 6 8 7 6 6 5 5 8 10 11 10 11 11
5 3 4 4 8 14 15 16 10 2 6 13 8 8 9 14 16 16 14 17 16 17 18 17 17 17 19 12 8 10 5 2 4 10 13 11 11 11 11 7 8 10 11 11
8 4 8 11 18 19 12 12 4 6 7 6 9 11 12 10 16 15 15 17 16 17 17 16 15 17 20 17 14 9 6 7 8 7 8 11 11 13 13 12 12 12 13 15
12 17 13 17 18 15 20 16 8 5 8 11 12 13 14 13 15 16 16 16 16 17 16 17 18 19 20 19 19 15 6 10 10 10 9 9 9 11 11 10 8 23 18 23
Wind_Direction
192 134 210 227 211 229 193 224 232 248 249 205 234 240 247 267 247 244 254 259 253 247 255 237 211 203 198 192 186 186 180 181 171 171 174 185 198 189 184 177 182 176 175 172
144 214 227 240 215 226 243 253 260 269 261 229 265 258 244 246 262 260 246 248 251 251 252 250 215 188 190 192 191 186 187 178 183 181 182 181 175 182 186 178 182 179 176 174
225 227 226 221 233 233 231 233 250 255 298 233 295 276 231 241 248 267 260 250 258 253 253 251 204 196 195 198 191 189 185 182 183 177 157 102 99 77 137 185 188 185 179 178
236 243 224 194 221 210 263 218 251 260 283 272 142 294 160 209 232 248 262 257 248 249 249 252 205 193 197 208 192 189 183 180 181 171 173 178 185 188 198 189 169 169 180 182
243 196 188 218 234 184 259 186 227 226 200 341 182 257 237 216 234 246 251 256 250 247 251 242 201 205 211 188 189 185 178 178 173 173 179 184 192 188 140 136 153 180 186 184
248 225 200 219 196 198 177 85 51 51 97 279 227 188 283 195 209 235 254 255 258 252 251 232 213 184 185 166 172 174 173 175 171 177 181 188 191 167 157 165 179 189 186 187
327 229 230 167 238 184 170 99 296 330 84 229 168 173 257 262 258 223 234 254 256 258 259 196 202 179 163 175 177 173 174 179 175 181 187 192 194 183 188 182 187 181 184 188
210 289 176 167 204 198 205 195 186 202 243 259 108 230 261 226 237 245 238 248 264 271 233 212 206 191 179 178 176 178 184 182 183 186 192 192 192 192 196 191 188 191 195 194
196 257 193 188 174 156 197 193 231 290 17 29 259 273 298 268 272 294 272 265 268 272 249 227 207 189 178 180 182 183 181 189 190 191 190 196 194 196 200 187 185 186 180 174
252 268 349 16 336 252 192 183 83 218 202 234 225 244 259 275 288 277 289 276 279 274 252 243 223 197 190 175 184 185 187 196 191 184 191 195 198 201 197 176 185 182 173 162
207 226 262 4 205 221 245 246 227 240 197 255 263 253 260 277 264 272 279 307 321 279 254 236 240 218 193 169 188 194 189 188 188 194 194 195 197 195 192 190 185 178 167 170
208 187 217 242 266 221 218 247 238 236 245 237 253 251 268 270 253 275 264 288 244 260 282 278 248 214 214 199 199 203 196 196 203 196 198 198 185 182 190 190 185 171 177 175
183 230 257 199 274 270 245 245 233 248 255 251 255 258 262 268 269 242 259 284 286 299 313 287 265 237 227 217 214 214 203 213 201 193 193 190 187 186 197 194 184 177 171 172
219 248 246 257 258 237 230 235 244 241 250 252 249 259 267 270 266 265 265 271 284 290 292 255 238 232 228 210 210 205 214 210 200 199 196 195 193 196 197 189 178 174 173 169
229 252 247 250 252 262 258 260 260 242 239 240 256 257 257 269 268 269 268 288 312 298 283 269 260 252 238 229 227 223 218 202 193 194 192 204 201 195 186 177 175 170 172 177
315 283 282 271 253 242 249 255 256 256 256 263 262 258 255 264 277 282 279 291 280 279 280 274 259 256 251 233 248 225 225 212 189 196 208 202 186 177 174 169 171 168 170 164
262 279 282 272 290 298 278 244 254 259 267 257 259 260 266 273 281 291 313 23 24 5 355 343 316 274 259 250 233 238 228 192 193 203 193 177 171 171 171 166 166 168 171 165
253 260 256 274 289 266 270 229 233 247 254 314 12 20 16 351 320 332 38 23 1 350 341 335 333 331 315 295 272 252 197 189 191 191 178 168 168 170 164 163 170 167 167 168
231 244 262 251 257 274 251 30 345 339 121 25 343 347 1 350 332 67 14 349 324 320 315 312 309 308 316 309 301 264 213 179 173 183 182 174 170 165 164 169 169 164 160 161
325 276 260 286 282 286 26 344 328 289 202 17 351 328 8 342 340 315 331 329 326 323 318 322 316 320 320 323 317 323 312 204 198 194 173 158 164 167 174 170 167 164 169 165
350 320 255 267 274 287 13 359 341 286 340 337 338 355 335 342 330 318 325 325 324 325 325 320 322 315 310 317 327 6 30 355 353 20 92 140 158 161 165 156 160 156 160 156
274 286 354 342 312 253 4 353 351 289 316 328 348 340 319 303 306 306 306 310 315 314 311 311 313 313 310 302 304 292 209 182 150 137 118 113 129 148 155 151 151 158 156 159
272 180 218 185 232 295 318 301 303 296 283 302 321 317 321 317 307 303 306 310 312 307 299 303 305 310 309 291 240 285 278 182 157 131 124 124 132 142 162 159 158 158 165 171
262 238 211 319 260 278 283 292 268 46 324 321 331 317 306 299 300 307 313 307 305 301 303 306 307 301 297 295 257 245 274 223 255 169 167 162 164 161 168 160 173 177 179 182
227 278 243 266 277 281 275 285 344 318 295 305 306 297 294 307 300 303 301 299 297 299 305 311 312 312 307 310 294 270 202 182 212 211 198 183 180 183 177 179 181 192 193 186
237 253 258 264 278 289 287 301 344 301 320 318 302 302 299 301 293 301 292 292 294 296 304 306 306 301 297 299 297 298 217 191 214 212 197 204 192 184 183 181 197 199 196 197